Weather History for Houston Clover, TX

Change the Weather History Date:

Wednesday, September 11, 2013

  Actual Average (KHOU) Record (KHOU)
Temperature  
Mean Temperature 83 °F 81 °F  
Max Temperature 91 °F 91 °F 99 °F (1893)
Min Temperature 75 °F 71 °F 56 °F (1907)
Degree Days  
Heating Degree Days 0 0  
Month to date heating degree days 0  
Since 1 July heating degree days 0  
Cooling Degree Days 18 16  
Month to date cooling degree days 189  
Year to date cooling degree days 2571  
Growing Degree Days 33 (Base 50)    
Moisture  
Dew Point 72 °F    
Average Humidity 70    
Maximum Humidity 85    
Minimum Humidity 52    
Precipitation  
Precipitation 0.00 in 0.15 in 4.81 in (1998)
Month to date precipitation 1.61  
Year to date precipitation 33.48  
Sea Level Pressure  
Sea Level Pressure 30.05 in    
Wind  
Wind Speed 5 mph (East)    
Max Wind Speed 15 mph    
Max Gust Speed 20 mph    
Visibility 10 miles    
Events      
T = Trace of Precipitation, MM = Missing Value Source: NWS Daily Summary

Daily Weather History Graph

Daily Weather History Graph

Search for Another Location

Airport:

Trip Planner

Search our weather history database for the weather conditions in past years. The results will help you decide how hot, cold, wet, or windy it might be!

Date:

Astronomy

Sep. 11, 2013 Rise Set
Actual Time 7:03 AM CDT 7:30 PM CDT
Civil Twilight 6:39 AM CDT 7:54 PM CDT
Nautical Twilight 6:11 AM CDT 8:22 PM CDT
Astronomical Twilight 5:43 AM CDT 8:50 PM CDT
Moon 1:04 PM CDT (9/11) 11:56 PM CDT (9/11)
Length of Visible Light 13h 14m
Length of Day
12h 26m
Waxing Crescent, 39% of the Moon is Illuminated
Sep 11
Waxing Crescent
Sep 12
First Quarter
Sep 19
Full
Sep 26
Last Quarter
Oct 4
New

Hourly Weather History & Observations

Time (CDT) Temp. Heat Index Dew Point Humidity Pressure Visibility Wind Dir Wind Speed Gust Speed Precip Events Conditions
12:53 AM 78.1 °F - 72.0 °F 81% 30.05 in 10.0 mi Calm Calm - N/A   Clear
1:53 AM 77.0 °F - 72.0 °F 84% 30.05 in 10.0 mi East 3.5 mph - N/A   Clear
2:53 AM 75.9 °F - 71.1 °F 85% 30.05 in 10.0 mi East 3.5 mph - N/A   Clear
3:53 AM 75.9 °F - 71.1 °F 85% 30.04 in 9.0 mi NE 3.5 mph - N/A   Clear
4:53 AM 75.9 °F - 71.1 °F 85% 30.04 in 10.0 mi Calm Calm - N/A   Partly Cloudy
5:53 AM 75.9 °F - 71.1 °F 85% 30.04 in 9.0 mi NNE 4.6 mph - N/A   Scattered Clouds
6:53 AM 77.0 °F - 72.0 °F 84% 30.05 in 8.0 mi NNE 3.5 mph - N/A   Scattered Clouds
7:53 AM 79.0 °F - 73.9 °F 84% 30.06 in 6.0 mi NE 3.5 mph - N/A   Haze
8:53 AM 82.0 °F 88.6 °F 75.0 °F 79% 30.08 in 9.0 mi ENE 6.9 mph - N/A   Clear
9:53 AM 86.0 °F 95.1 °F 75.0 °F 70% 30.09 in 10.0 mi East 15.0 mph 19.6 mph N/A   Partly Cloudy
10:53 AM 86.0 °F 93.0 °F 73.0 °F 65% 30.10 in 10.0 mi East 11.5 mph 18.4 mph N/A   Partly Cloudy
11:53 AM 87.1 °F 93.6 °F 72.0 °F 61% 30.10 in 10.0 mi East 10.4 mph - N/A   Clear
12:53 PM 89.1 °F 96.0 °F 72.0 °F 57% 30.08 in 10.0 mi ESE 12.7 mph - N/A   Partly Cloudy
1:53 PM 90.0 °F 96.4 °F 71.1 °F 54% 30.06 in 10.0 mi East 6.9 mph - N/A   Scattered Clouds
2:53 PM 90.0 °F 96.4 °F 71.1 °F 54% 30.05 in 10.0 mi East 12.7 mph 19.6 mph N/A   Scattered Clouds
3:53 PM 91.0 °F 98.2 °F 72.0 °F 53% 30.03 in 10.0 mi East 11.5 mph - N/A   Partly Cloudy
4:53 PM 91.0 °F 97.6 °F 71.1 °F 52% 30.02 in 10.0 mi ESE 12.7 mph - N/A   Clear
5:53 PM 88.0 °F 92.9 °F 70.0 °F 55% 30.01 in 10.0 mi East 9.2 mph - N/A   Clear
6:53 PM 87.1 °F 92.0 °F 70.0 °F 57% 30.01 in 10.0 mi ESE 10.4 mph - N/A   Clear
7:53 PM 82.9 °F 85.8 °F 68.0 °F 60% 30.02 in 10.0 mi East 4.6 mph - N/A   Clear
8:53 PM 81.0 °F 84.4 °F 70.0 °F 69% 30.03 in 10.0 mi Calm Calm - N/A   Clear
9:53 PM 80.1 °F 83.2 °F 70.0 °F 71% 30.04 in 10.0 mi Calm Calm - N/A   Clear
10:53 PM 79.0 °F - 71.1 °F 77% 30.04 in 10.0 mi Calm Calm - N/A   Clear
11:53 PM 78.1 °F - 71.1 °F 79% 30.04 in 10.0 mi Calm Calm - N/A   Clear